Change the Weather History Date:

Thursday, June 27, 2013

  Actual Average Record
Temperature  
Mean Temperature 66 °F -  
Max Temperature 73 °F 79 °F 96 °F (2007)
Min Temperature 60 °F 57 °F 47 °F (1964)
Cooling Degree Days 2    
Growing Degree Days 16 (Base 50)    
Moisture  
Dew Point 64 °F    
Average Humidity 96    
Maximum Humidity 100    
Minimum Humidity 79    
Precipitation  
Precipitation 0.10 in - - ()
Sea Level Pressure  
Sea Level Pressure 29.83 in    
Wind  
Wind Speed 5 mph (East)    
Max Wind Speed 10 mph    
Max Gust Speed -    
Visibility 5 miles    
Events Rain    
Averages and records for this station are not official NWS values.
T = Trace of Precipitation, MM = Missing Value Source: NWS Daily Summary

Daily Weather History Graph

Daily Weather History Graph

Search for Another Location

Airport or City:

Trip Planner

Search our weather history database for the weather conditions in past years. The results will help you decide how hot, cold, wet, or windy it might be!

Date:

Astronomy

Jun. 27, 2013 Rise Set
Actual Time 5:09 AM EDT 8:26 PM EDT
Civil Twilight 4:35 AM EDT 9:01 PM EDT
Nautical Twilight 3:50 AM EDT 9:46 PM EDT
Astronomical Twilight 2:55 AM EDT 10:41 PM EDT
Moon 11:14 PM EDT (6/27) 10:13 AM EDT (6/27)
Length of Visible Light 16h 26m
Length of Day
15h 16m
Waning Gibbous, 76% of the Moon is Illuminated
Jun 27
Waning Gibbous
Jun 30
Last Quarter
Jul 8
New
Jul 15
First Quarter
Jul 22
Full

Hourly Weather History & Observations

Time (EDT) Temp. Dew Point Humidity Pressure Visibility Wind Dir Wind Speed Gust Speed Precip Events Conditions
12:56 AM 68.0 °F 66.9 °F 96% 29.87 in 6.0 mi Calm Calm - N/A   Overcast
1:27 AM 66.2 °F 64.4 °F 94% 29.83 in 5.0 mi NE 5.8 mph - N/A   Overcast
1:56 AM 64.9 °F 64.9 °F 100% 29.87 in 4.0 mi NNE 5.8 mph - N/A   Overcast
2:14 AM 64.4 °F 64.4 °F 100% 29.83 in 2.0 mi NE 5.8 mph - N/A   Overcast
2:35 AM 64.4 °F 62.6 °F 94% 29.83 in 1.5 mi NE 5.8 mph - N/A   Overcast
2:56 AM 63.0 °F 63.0 °F 100% 29.85 in 1.5 mi NE 4.6 mph - N/A   Overcast
3:42 AM 62.6 °F 62.6 °F 100% 29.82 in 2.0 mi ENE 5.8 mph - N/A   Overcast
3:56 AM 63.0 °F 63.0 °F 100% 29.85 in 2.5 mi NE 5.8 mph - N/A   Overcast
4:24 AM 62.6 °F 62.6 °F 100% 29.82 in 1.5 mi East 9.2 mph - N/A   Overcast
4:56 AM 61.0 °F 61.0 °F 100% 29.84 in 1.8 mi NE 9.2 mph - N/A   Overcast
5:56 AM 61.0 °F 61.0 °F 100% 29.88 in 1.2 mi ENE 5.8 mph - N/A   Overcast
6:18 AM 60.8 °F 60.8 °F 100% 29.86 in 0.8 mi East 4.6 mph - N/A   Overcast
6:44 AM 60.8 °F 60.8 °F 100% 29.86 in 1.5 mi East 4.6 mph - N/A   Overcast
6:51 AM 60.8 °F 60.8 °F 100% 29.86 in 0.8 mi East 3.5 mph - N/A   Mist
6:56 AM 61.0 °F 61.0 °F 100% 29.90 in 0.8 mi East 4.6 mph - N/A   Mist
7:03 AM 60.8 °F 60.8 °F 100% 29.86 in 2.5 mi ENE 4.6 mph - N/A   Overcast
7:12 AM 60.8 °F 60.8 °F 100% 29.86 in 3.0 mi ENE 5.8 mph - N/A   Overcast
7:56 AM 61.0 °F 61.0 °F 100% 29.89 in 10.0 mi East 4.6 mph - N/A   Overcast
8:04 AM 62.6 °F 62.6 °F 100% 29.86 in 10.0 mi SE 4.6 mph - N/A   Overcast
8:56 AM 64.9 °F 62.1 °F 90% 29.88 in 10.0 mi East 4.6 mph - N/A   Overcast
9:56 AM 66.0 °F 63.0 °F 90% 29.88 in 10.0 mi ESE 6.9 mph - N/A   Overcast
10:56 AM 68.0 °F 64.0 °F 87% 29.87 in 10.0 mi East 5.8 mph - N/A   Overcast
11:05 AM 68.0 °F 64.4 °F 88% 29.84 in 10.0 mi East 4.6 mph - N/A   Overcast
11:56 AM 70.0 °F 64.9 °F 84% 29.86 in 10.0 mi Variable 4.6 mph - N/A   Overcast
12:03 PM 69.8 °F 64.4 °F 83% 29.82 in 10.0 mi ENE 4.6 mph - N/A   Overcast
12:56 PM 71.1 °F 66.0 °F 84% 29.85 in 10.0 mi SE 3.5 mph - N/A   Overcast
1:56 PM 73.0 °F 66.0 °F 79% 29.83 in 10.0 mi East 4.6 mph - N/A   Overcast
2:28 PM 71.6 °F 66.2 °F 83% 29.80 in 10.0 mi ESE 5.8 mph - N/A   Overcast
2:56 PM 71.1 °F 66.0 °F 84% 29.83 in 8.0 mi ESE 5.8 mph - 0.01 in Rain Light Rain
3:44 PM 68.0 °F 66.2 °F 94% 29.80 in 5.0 mi SSE 9.2 mph - 0.04 in Rain Light Rain
3:56 PM 68.0 °F 66.0 °F 93% 29.83 in 5.0 mi SE 8.1 mph - 0.05 in Rain Light Rain
4:03 PM 68.0 °F 66.2 °F 94% 29.79 in 4.0 mi SE 8.1 mph - 0.01 in Rain Rain
4:23 PM 66.2 °F 66.2 °F 100% 29.79 in 5.0 mi ESE 10.4 mph - 0.03 in Rain Light Rain
4:56 PM 66.0 °F 64.9 °F 96% 29.83 in 5.0 mi ENE 8.1 mph - 0.03 in Rain Light Rain
5:56 PM 64.9 °F 64.9 °F 100% 29.83 in 3.0 mi East 9.2 mph - 0.01 in   Overcast
6:03 PM 64.4 °F 64.4 °F 100% 29.79 in 8.0 mi East 8.1 mph - N/A   Overcast
6:56 PM 64.9 °F 64.9 °F 100% 29.82 in 3.0 mi East 8.1 mph - N/A   Overcast
7:06 PM 64.4 °F 64.4 °F 100% 29.78 in 4.0 mi East 6.9 mph - N/A   Overcast
7:53 PM 64.4 °F 64.4 °F 100% 29.78 in 2.0 mi East 8.1 mph - N/A   Overcast
7:56 PM 64.0 °F 64.0 °F 100% 29.81 in 2.0 mi East 8.1 mph - N/A   Overcast
8:03 PM 64.4 °F 64.4 °F 100% 29.78 in 7.0 mi East 6.9 mph - N/A   Overcast
8:56 PM 64.0 °F 64.0 °F 100% 29.82 in 4.0 mi East 4.6 mph - N/A   Overcast
9:31 PM 64.4 °F 64.4 °F 100% 29.78 in 5.0 mi East 5.8 mph - 0.00 in   Overcast
9:56 PM 64.0 °F 64.0 °F 100% 29.82 in 4.0 mi East 5.8 mph - 0.00 in   Overcast
10:56 PM 63.0 °F 63.0 °F 100% 29.80 in 6.0 mi ENE 5.8 mph - N/A   Overcast
11:28 PM 64.4 °F 62.6 °F 94% 29.76 in 10.0 mi East 8.1 mph - N/A   Overcast
11:56 PM 63.0 °F 63.0 °F 100% 29.79 in 10.0 mi East 8.1 mph - N/A   Overcast